CW2683 Weather Reports


Display with metric or nautical units.
time (UTC)temp
F
wind
direction
speed
MPH
gust
MPH
rain 1hr
in
rain 24hr
in
rain mn
in
humidity
%
barometer
mb
20210303021433 51 205 0.0 0.0 0.00 0.00 0.00 47 1021.9
20210303020450 52 205 0.0 0.0 0.00 0.00 0.00 46 1021.9
20210303015442 53 205 0.0 0.0 0.00 0.00 0.00 46 1021.8
20210303014445 54 205 0.0 0.0 0.00 0.00 0.00 44 1021.7
20210303013520 54 105 0.0 0.0 0.00 0.00 0.00 43 1021.5
20210303012526 55 105 0.0 0.0 0.00 0.00 0.00 40 1021.3
20210303011422 55 105 0.0 0.0 0.00 0.00 0.00 39 1021.2
20210303010427 56 105 0.0 0.0 0.00 0.00 0.00 37 1021.2
20210303005401 57 105 0.0 0.0 0.00 0.00 0.00 35 1021.4
20210303004343 58 105 0.0 0.0 0.00 0.00 0.00 33 1021.4
20210303002356 59 105 0.0 1.0 0.00 0.00 0.00 29 1021.3
20210303001326 60 105 0.0 1.0 0.00 0.00 0.00 28 1021.3
20210303000408 60 105 1.0 2.0 0.00 0.00 0.00 27 1021.3
20210302235324 60 101 1.0 2.0 0.00 0.00 0.00 27 1021.3
20210302234307 60 92 1.0 4.0 0.00 0.00 0.00 27 1021.3
20210302233323 61 35 0.0 4.0 0.00 0.00 0.00 28 1021.4
20210302232257 61 64 1.0 4.0 0.00 0.00 0.00 27 1021.5
20210302231233 61 19 1.0 5.0 0.00 0.00 0.00 28 1021.6
20210302230244 61 39 1.0 6.0 0.00 0.00 0.00 26 1021.6
20210302225240 62 246 2.0 6.0 0.00 0.00 0.00 26 1021.7
20210302224213 63 268 2.0 7.0 0.00 0.00 0.00 26 1021.8
20210302223157 63 278 1.0 7.0 0.00 0.00 0.00 23 1021.8
20210302222222 64 271 1.0 4.0 0.00 0.00 0.00 23 1021.7
20210302221147 64 265 1.0 8.0 0.00 0.00 0.00 21 1021.8
20210302220204 64 333 1.0 8.0 0.00 0.00 0.00 23 1022.0
20210302215223 64 78 2.0 8.0 0.00 0.00 0.00 23 1022.1
20210302214230 64 13 2.0 9.0 0.00 0.00 0.00 24 1022.2
20210302213230 64 271 2.0 9.0 0.00 0.00 0.00 26 1022.3
20210302212248 64 5 1.0 7.0 0.00 0.00 0.00 27 1022.4
20210302211245 64 277 1.0 7.0 0.00 0.00 0.00 26 1022.5
20210302210249 64 290 1.0 10.0 0.00 0.00 0.00 27 1022.6
20210302205254 64 53 2.0 10.0 0.00 0.00 0.00 26 1022.9
20210302204300 64 0 1.0 8.0 0.00 0.00 0.00 27 1022.9
20210302203243 63 24 1.0 8.0 0.00 0.00 0.00 25 1023.1
20210302202247 64 331 3.0 9.0 0.00 0.00 0.00 25 1023.3
20210302201301 63 296 2.0 9.0 0.00 0.00 0.00 28 1023.4
20210302200229 63 281 2.0 7.0 0.00 0.00 0.00 29 1023.7
20210302195408 63 225 1.0 7.0 0.00 0.00 0.00 28 1023.9
20210302194235 62 71 3.0 10.0 0.00 0.00 0.00 26 1024.1
20210302193226 62 33 3.0 10.0 0.00 0.00 0.00 32 1024.3
20210302192247 62 259 4.0 8.0 0.00 0.00 0.00 29 1024.6
20210302191309 62 103 4.0 9.0 0.00 0.00 0.00 28 1024.8
20210302190330 61 82 3.0 10.0 0.00 0.00 0.00 28 1025.0
20210302185603 62 99 2.0 10.0 0.00 0.00 0.00 27 1025.4
20210302184316 62 17 1.0 7.0 0.00 0.00 0.00 31 1025.5
20210302183316 61 234 1.0 7.0 0.00 0.00 0.00 31 1025.7
20210302182344 60 59 2.0 8.0 0.00 0.00 0.00 33 1025.9
20210302181319 60 272 2.0 8.0 0.00 0.00 0.00 34 1026.1
20210302180309 59 30 1.0 4.0 0.00 0.00 0.00 35 1026.3
20210302175256 57 225 0.0 5.0 0.00 0.00 0.00 36 1026.4
20210302174259 57 109 2.0 5.0 0.00 0.00 0.00 36 1026.5
20210302173450 56 340 1.0 5.0 0.00 0.00 0.00 39 1026.7
20210302172215 55 85 2.0 6.0 0.00 0.00 0.00 36 1026.8
20210302171221 54 24 1.0 7.0 0.00 0.00 0.00 39 1026.9
20210302170221 54 219 1.0 7.0 0.00 0.00 0.00 40 1027.0
20210302165214 53 213 1.0 3.0 0.00 0.00 0.00 40 1027.2
20210302164237 53 46 1.0 7.0 0.00 0.00 0.00 41 1027.4
20210302163636 53 342 2.0 5.0 0.00 0.00 0.00 43 1027.5
20210302162125 52 57 0.0 4.0 0.00 0.00 0.00 44 1027.5
20210302161130 51 269 1.0 5.0 0.00 0.00 0.00 46 1027.4
20210302160059 51 263 1.0 3.0 0.00 0.00 0.00 46 1027.5
20210302155058 50 187 0.0 3.0 0.00 0.00 0.00 48 1027.6
20210302154147 50 238 1.0 3.0 0.00 0.00 0.00 49 1027.8
20210302153155 49 82 0.0 3.0 0.00 0.00 0.00 51 1027.9
20210302152035 48 142 0.0 0.0 0.00 0.00 0.00 51 1027.9
20210302150954 47 126 0.0 0.0 0.00 0.00 0.00 52 1027.8
20210302150157 46 116 0.0 2.0 0.00 0.00 0.00 57 1028.0
20210302145131 44 109 0.0 0.0 0.00 0.01 0.00 59 1027.9
20210302144033 42 89 0.0 3.0 0.00 0.02 0.00 67 1027.7
20210302143022 41 76 0.0 3.0 0.00 0.05 0.00 78 1027.6
20210302142030 40 124 0.0 0.0 0.00 0.08 0.00 81 1027.5
20210302141042 39 113 0.0 0.0 0.00 0.10 0.00 81 1027.3
20210302140033 39 113 0.0 0.0 0.00 0.11 0.00 80 1027.2
20210302135040 39 113 0.0 0.0 0.00 0.11 0.00 79 1027.2
20210302133931 39 113 0.0 0.0 0.00 0.11 0.00 78 1027.2
20210302133121 39 113 0.0 0.0 0.00 0.11 0.00 77 1027.2
20210302131944 39 113 0.0 0.0 0.00 0.11 0.00 77 1027.1
20210302130943 39 113 0.0 0.0 0.00 0.11 0.00 75 1027.0
20210302125918 39 113 0.0 0.0 0.00 0.11 0.00 74 1026.9
20210302125158 40 113 0.0 0.0 0.00 0.11 0.00 73 1026.9
20210302123950 40 113 0.0 0.0 0.00 0.11 0.00 73 1027.2
20210302121915 40 113 0.0 0.0 0.00 0.11 0.00 71 1027.1
20210302120921 41 113 0.0 0.0 0.00 0.11 0.00 70 1027.1
20210302115904 41 113 0.0 0.0 0.00 0.11 0.00 69 1027.1
20210302115134 42 113 0.0 0.0 0.00 0.11 0.00 68 1027.1
20210302113942 42 113 0.0 0.0 0.00 0.11 0.00 66 1027.0
20210302113420 42 113 0.0 0.0 0.00 0.11 0.00 65 1026.8
20210302111928 43 113 0.0 0.0 0.00 0.11 0.00 63 1026.7
20210302110901 43 113 0.0 0.0 0.00 0.11 0.00 63 1026.7
20210302105905 44 113 0.0 0.0 0.00 0.11 0.00 62 1026.6
20210302105028 45 113 0.0 0.0 0.00 0.11 0.00 60 1026.4
20210302103830 45 113 0.0 0.0 0.00 0.11 0.00 60 1026.3
20210302103131 45 113 0.0 0.0 0.00 0.11 0.00 58 1026.3
20210302101839 46 113 0.0 0.0 0.00 0.11 0.00 58 1026.3
20210302100845 46 113 0.0 3.0 0.00 0.12 0.00 57 1026.3
20210302095818 46 114 0.0 2.0 0.00 0.12 0.00 58 1026.4
20210302094944 46 135 0.0 0.0 0.00 0.12 0.00 57 1026.4
20210302093812 46 136 0.0 3.0 0.00 0.12 0.00 59 1026.5
20210302093413 46 126 0.0 0.0 0.00 0.12 0.00 61 1026.6
20210302091839 46 126 0.0 0.0 0.00 0.12 0.00 62 1026.7
20210302091130 47 126 0.0 0.0 0.00 0.13 0.00 62 1027.0
20210302090053 47 126 0.0 0.0 0.00 0.13 0.00 60 1027.2
20210302084815 47 126 0.0 0.0 0.00 0.15 0.00 58 1027.3
20210302083849 47 126 0.0 0.0 0.00 0.15 0.00 58 1027.3
20210302082744 47 126 0.0 0.0 0.00 0.15 0.00 58 1027.4
20210302081951 47 126 0.0 0.0 0.00 0.15 0.00 57 1027.6
20210302080747 48 126 0.0 0.0 0.00 0.15 0.00 55 1027.6
20210302075906 48 126 0.0 0.0 0.00 0.16 0.00 55 1027.6
20210302074751 48 126 0.0 0.0 0.00 0.16 0.00 53 1027.6
20210302073743 48 126 0.0 0.0 0.00 0.16 0.00 54 1027.7
20210302072923 48 126 0.0 0.0 0.00 0.16 0.00 52 1027.9
20210302071725 48 126 0.0 0.0 0.00 0.16 0.00 54 1027.7
20210302070711 49 125 0.0 0.0 0.00 0.16 0.00 54 1027.8
20210302065842 49 124 0.0 3.0 0.00 0.16 0.00 54 1027.9
20210302064736 49 127 0.0 0.0 0.00 0.16 0.00 54 1027.9
20210302063931 49 121 1.0 0.0 0.00 0.16 0.00 57 1027.7
20210302062734 48 79 0.0 2.0 0.00 0.16 0.00 65 1028.1
20210302060425 48 107 0.0 5.0 0.00 0.16 0.17 68 1028.1
20210302055403 47 92 0.0 4.0 0.00 0.16 0.17 71 1028.2
20210302053650 47 91 0.0 4.0 0.00 0.16 0.17 73 1028.2
20210302052901 47 132 0.0 4.0 0.00 0.16 0.17 76 1028.1
20210302051650 48 155 0.0 0.0 0.00 0.16 0.17 76 1028.0
20210302050635 48 155 0.0 0.0 0.00 0.16 0.17 75 1027.9
20210302045636 48 155 0.0 0.0 0.00 0.16 0.17 74 1028.0
20210302044617 48 155 0.0 0.0 0.00 0.16 0.17 74 1028.0
20210302043607 49 155 0.0 0.0 0.00 0.16 0.17 73 1028.0
20210302042705 49 155 0.0 0.0 0.00 0.16 0.17 72 1027.8
20210302041556 50 155 0.0 0.0 0.00 0.16 0.17 71 1027.7
20210302040617 50 155 0.0 0.0 0.00 0.16 0.17 70 1027.5
20210302035615 51 155 0.0 0.0 0.00 0.16 0.17 69 1027.6
20210302034548 51 155 0.0 0.0 0.00 0.16 0.17 68 1027.5
20210302033551 51 155 0.0 0.0 0.00 0.16 0.17 67 1027.6
20210302032709 51 155 0.0 0.0 0.00 0.17 0.17 66 1027.5
20210302031624 52 155 0.0 0.0 0.00 0.20 0.17 65 1027.6
20210302030632 52 155 0.0 0.0 0.00 0.20 0.17 65 1027.5
20210302025731 52 155 0.0 0.0 0.00 0.20 0.17 64 1027.4
20210302024620 52 155 0.0 0.0 0.00 0.20 0.17 62 1027.2
20210302023645 53 155 0.0 0.0 0.00 0.20 0.17 62 1027.2
20210302022738 53 155 0.0 0.0 0.00 0.21 0.17 61 1027.1